Regional Weather Roundup
Issued by NWS Bismarck, ND

Home | Current Version | Previous Version | Text Only | Print | Product List | Glossary Off
Versions: 1 2 3 4 5 6 7 8 9 10 11 12 13 14 15 16 17 18 19 20 21 22 23 24 25 26 27 28 29 30 31 32 33 34 35 36 37 38 39 40 41 42 43 44 45 46 47 48 49 50

000
ASUS43 KBIS 051420
RWRBIS

NWR BROADCAST TEXT
NATIONAL WEATHER SERVICE BISMARCK ND
900 AM CDT TUE MAY 05 2015

NOTE: "FAIR" INDICATES FEW OR NO CLOUDS BELOW 12,000 FEET WITH NO
SIGNIFICANT WEATHER AND/OR OBSTRUCTIONS TO VISIBILITY.


CITY           SKY/WX    TMP DP  RH WIND       PRES   REMARKS
WILLISTON      SUNNY     57  29  34 S8        29.94F
MINOT          CLOUDY    58  30  34 SE16G25   30.01F
MINOT AFB      PTSUNNY   60  32  34 S18G25    30.00F
BISMARCK       MOSUNNY   57  35  43 SE14      30.06S
DICKINSON      SUNNY     54  32  43 S21G28    29.95F
GARRISON         N/A     57  32  38 S17       30.01S
HETTINGER ARPT MOSUNNY   54  32  43 SE16      30.00S
JAMESTOWN      MOSUNNY   59  30  33 S15G24    30.12F
BEACH          FAIR      52  32  46 S20       29.93F
CARRINGTON     PTSUNNY   54  32  43 S22       30.12S
CROSBY         FAIR      55  32  41 S24G33    29.92F
HARVEY         PTSUNNY   59  32  36 S14G20    30.07F
HAZEN          CLOUDY    57  32  38 S17G24    30.02S
LINTON         PTSUNNY   57  37  47 SE16G22   30.08S
MANDAN         FAIR      57  34  41 S17       30.06F
OAKES            N/A     59  32  36 SE15      30.14F
STANLEY        PTSUNNY   55  32  41 S16       29.99F
TIOGA          FAIR      55  28  35 S23G29    29.99S
WATFORD CITY   FAIR      57  28  33 S17G25    29.93S
$$

CITY           SKY/WX    TMP DP  RH WIND       PRES   REMARKS
GRAND FORKS    MOSUNNY   59  31  34 S9        30.17F
GRAND FORKS AF MOSUNNY   60  26  27 S18       30.16F
DEVILS LAKE    PTSUNNY   61  34  36 S18       30.11F
FARGO          SUNNY     61  26  26 SE14      30.17F
CANDO          FAIR      57  32  38 S15       30.11F
CAVALIER       FAIR      57  28  33 S15G23    30.14F
GRAFTON        FAIR      59  30  33 S17G25    30.16F
GWINNER        SUNNY     59  32  36 SE14      30.17S
LANGDON        CLOUDY    61  28  29 S25       30.12F
WALHALLA       FAIR      64  30  27 S13       30.13S
$$

CITY           SKY/WX    TMP DP  RH WIND       PRES   REMARKS
ABERDEEN       MOSUNNY   62  32  32 SE13      30.13F
MOBRIDGE       MOSUNNY   60  38  43 SE14      30.05F
BUFFALO          N/A     55  35  47 SE10      29.90S
RAPID CITY     SUNNY     50  38  63 SE7       29.99F
GLASGOW        SUNNY     52  36  54 E16       29.82F
SIDNEY         SUNNY     57  30  35 SE13      29.91F
WOLF POINT     MOSUNNY   54  36  50 E7        29.87S
GLENDIVE       MOSUNNY   55  34  44 S12       29.90F
MILES CITY     SUNNY     55  37  50 SE16      29.85S
BAKER          SUNNY     52  33  48 SE21      29.93S
$$

CITY           SKY/WX    TMP DP  RH WIND       PRES   REMARKS
BILLINGS       MOSUNNY   52  42  69 CALM      29.82S
GREAT FALLS    MOSUNNY   50  34  54 N3        29.78R
REGINA         PTSUNNY   52  34  50 SE21G26   29.87F
ESTEVAN        MOSUNNY   55  34  44 S18G26    29.94F
$$




USA.gov is the U.S. government's official web portal to all federal, state and local government web resources and services.